Home > Weather > Neuwied > Past weeks

Flag for Germany Weather for the Past 2 Weeks in Neuwied, Rhineland-Palatinate, Germany

Now
45 °F

Quite cool.


Feels Like: 41 °F
Forecast: 43 / 57 °F
Wind: 7 mph from Northeast

Location: Buechel

Current Time: May 2, 2016 at 8:31:49 AM

Latest Report: May 2, 2016 at 7:20 AM


Visibility: N/A

Pressure: 30.27 "Hg

Humidity: 87%

Dew Point: 41 °F

Location of NeuwiedLocation

Historic Weather in Neuwied — Graph

°F

Neuwied Temperature Yesterday

Maximum temperature yesterday: 54 °F (at 5:20 PM)
Minimum temperature yesterday: 37 °F (at 3:20 AM)
Average temperature yesterday: 44 °F

High & Low Weather Summary for the Past Weeks

 TemperatureHumidityPressure
High64 °F (Apr 21, 5:20 PM)100% (Apr 25, 4:20 PM)30.42 "Hg (Apr 25, 4:20 PM)
Low28 °F (Apr 25, 4:20 AM)32% (Apr 21, 5:20 PM)29.53 "Hg (Apr 26, 1:20 AM)
Average41 °F73%29.99 "Hg
* Reported Apr 17 6:20 AM — May 2 6:20 AM, Neuwied, Weather by CustomWeather, © 2016

Note: Actual official high and low records may vary slightly from our data, if they occured in-between our weather recording intervals... More about our weather records

Advertising

Neuwied Weather History for the Previous 24 Hours

Scroll right to see more
 ConditionsComfort  
Time TempWeatherWind HumidityBarometerVisibility
6:20 AM
Mon, May 2
43 °FQuite cool.6 mph87%30.24 "HgN/A
5:20 AM43 °FQuite cool.8 mph87%30.27 "HgN/A
4:20 AM45 °FQuite cool.7 mph81%30.27 "HgN/A
3:20 AM45 °FQuite cool.9 mph81%30.27 "HgN/A
2:20 AM45 °FQuite cool.9 mph81%30.27 "HgN/A
1:20 AM45 °FQuite cool.10 mph81%30.27 "HgN/A
12:20 AM45 °FQuite cool.12 mph87%30.27 "HgN/A
11:20 PM
Sun, May 1
45 °FQuite cool.8 mph87%30.27 "HgN/A
10:20 PM46 °FCool.8 mph82%30.27 "HgN/A
9:20 PM50 °FCool.9 mph67%30.27 "HgN/A
8:20 PM52 °FCool.10 mph67%30.24 "HgN/A
7:20 PM54 °FCool.14 mph63%30.24 "HgN/A
6:20 PM54 °FCool.14 mph63%30.21 "HgN/A
5:20 PM54 °FCool.14 mph67%30.21 "HgN/A
4:20 PM52 °FCool.13 mph72%30.21 "HgN/A
3:20 PM52 °FCool.14 mph72%30.21 "HgN/A
2:20 PM50 °FCool.14 mph71%30.21 "HgN/A
1:20 PM46 °FCool.16 mph76%30.18 "HgN/A
12:20 PM43 °FQuite cool.16 mph87%30.18 "HgN/A
11:20 AM41 °FQuite cool.14 mph87%30.18 "HgN/A
10:20 AM39 °FChilly.14 mph93%30.18 "HgN/A
9:20 AM39 °FChilly.16 mph93%30.15 "HgN/A
8:20 AM39 °FChilly.14 mph87%30.15 "HgN/A
Weather by CustomWeather, © 2016

See weather overviewHow to use our weather pages